Location: Jarocin
(51.9626°N, 17.5030°E)
Time: 22:16:47
(UTC+01:00)

ISS - Visible Passes

Search period start: 19 January 2018 00:00
Search period end: 29 January 2018 00:00
Orbit: 402 x 407 km, 51.6° (Epoch: 20 January)

Date Brightness Start Highest point End Pass type
(mag) Time Alt. Az. Time Alt. Az. Time Alt. Az.
26 Jan -1.3 18:55:27 10° SSW 18:56:11 14° SSW 18:56:11 14° SSW visible
27 Jan -1.8 18:03:53 10° S 18:05:57 16° SE 18:06:11 16° SE visible
27 Jan -0.5 19:38:43 10° WSW 19:38:51 11° WSW 19:38:51 11° WSW visible
28 Jan -2.5 18:46:32 10° SW 18:48:46 32° SSW 18:48:46 32° SSW visible
